CDT,Max TemperatureF,Mean TemperatureF,Min TemperatureF,Max Dew PointF,MeanDew PointF,Min DewpointF,Max Humidity, Mean Humidity, Min Humidity, Max Sea Level PressureIn, Mean Sea Level PressureIn, Min Sea Level PressureIn, Max VisibilityMiles, Mean VisibilityMiles, Min VisibilityMiles, Max Wind SpeedMPH, Mean Wind SpeedMPH, Max Gust SpeedMPH,PrecipitationIn, CloudCover, Events, WindDirDegrees
2012-10-1,62,58,55,55,52,46,94,81,67,29.85,29.75,29.68,10,9,4,13,9,18,0.25,5,Rain,27
2012-10-2,59,57,55,57,55,54,100,92,88,29.89,29.77,29.67,10,7,1,14,8,18,0.02,8,Rain,346
2012-10-3,78,68,57,55,54,48,94,68,36,30.12,30.02,29.89,10,9,5,16,7,20,0.00,5,Rain-Thunderstorm,200
2012-10-4,82,68,55,59,55,52,94,65,35,30.20,30.15,30.11,10,10,10,16,7,23,0.00,1,,211
2012-10-5,64,54,44,59,48,41,94,82,59,30.19,30.14,30.06,10,9,1,15,6,22,0.77,4,Rain-Thunderstorm,349
2012-10-6,55,45,35,37,34,32,100,58,41,30.22,30.19,30.17,10,10,10,10,7,18,0.00,4,,317
2012-10-7,55,46,37,37,34,30,93,64,38,30.25,30.21,30.18,10,10,10,12,5,17,0.00,4,,316
2012-10-8,60,46,32,43,34,28,100,69,31,30.25,30.19,30.12,10,9,0,8,1,,0.00,0,Fog,202
2012-10-9,66,52,37,45,40,36,93,65,35,30.13,30.05,29.96,10,10,10,17,5,24,0.00,0,,186
2012-10-10,55,45,35,46,36,25,93,63,31,30.26,30.16,29.96,10,10,7,17,9,29,0.00,2,,307
2012-10-11,64,48,33,45,35,30,100,64,30,30.29,30.24,30.17,10,10,5,14,3,18,0.00,1,,192
2012-10-12,68,57,46,50,46,43,94,71,40,30.36,30.28,30.19,10,10,5,13,3,20,0.03,2,Rain,57
2012-10-13,78,62,46,64,56,45,94,77,57,30.26,30.10,29.92,10,8,2,20,8,26,0.00,3,,167
2012-10-14,73,64,53,64,59,48,88,73,53,29.91,29.80,29.70,10,10,5,32,19,46,0.05,5,Rain,219
2012-10-15,66,55,44,50,43,36,100,67,32,30.00,29.96,29.90,10,10,4,16,7,23,0.00,0,,292
2012-10-16,75,58,41,54,46,39,100,68,36,29.99,29.87,29.71,10,9,0,20,5,24,0.00,0,Fog,171
2012-10-17,75,65,55,57,51,46,94,65,41,29.75,29.61,29.41,10,10,4,28,12,36,0.66,3,Rain-Thunderstorm,180
2012-10-18,64,57,50,59,41,30,100,59,28,29.65,29.61,29.49,10,10,5,32,13,40,0.07,3,Rain,230
2012-10-19,55,52,48,48,44,34,87,75,44,29.76,29.64,29.55,10,10,7,22,11,26,0.10,8,Rain,242
2012-10-20,55,50,44,50,46,43,100,83,67,29.98,29.89,29.76,10,10,7,12,7,,0.00,7,,240
2012-10-21,77,60,42,59,50,41,93,71,41,30.04,30.01,29.97,10,9,5,14,5,17,0.00,2,,135
2012-10-22,80,73,66,59,53,46,78,50,34,30.05,30.02,29.94,10,10,10,23,10,31,0.00,3,Rain,190
2012-10-23,77,70,64,64,55,50,88,64,41,30.03,30.00,29.95,10,10,7,16,9,23,0.03,4,Rain-Thunderstorm,188
2012-10-24,80,68,55,63,58,52,94,68,47,30.06,30.01,29.97,10,10,10,17,9,18,0.00,1,,180
2012-10-25,80,66,51,59,56,45,83,66,47,30.06,29.94,29.87,10,10,10,22,11,32,0.00,2,,184
2012-10-26,50,46,41,45,38,34,93,76,58,30.26,30.20,30.08,10,10,3,20,13,25,0.21,7,Rain,350
2012-10-27,55,45,35,36,34,32,93,65,41,30.22,30.18,30.14,10,10,10,18,10,24,0.00,0,,360
2012-10-28,53,46,37,36,33,30,81,66,41,30.18,30.16,30.13,10,10,10,20,10,28,0.00,1,,355
2012-10-29,55,45,35,34,32,30,87,66,41,30.21,30.14,29.99,10,10,10,25,12,32,0.00,1,,336
2012-10-30,51,46,41,30,29,27,65,53,38,29.99,29.84,29.78,10,10,10,23,15,30,0.00,2,,320
2012-10-31,51,42,33,32,30,28,81,64,47,29.93,29.88,29.82,10,10,10,20,10,25,0.00,0,,293